CAPE
1092 924 845 1005 635 488 365 85 204 124 0 2 23 266 468 680 1120 1094 938 1218 717 1135 2142 1462 1024 744 739 814 430 810 1202 366 506 466 458 2316 1447 1538 1874 1814 1958 2163 2328 2565 2891 3246 3419 3686 3815 3721 3816 3849 3960 4013 3931 3931 3806 3704 3730 3752 3814 3673 3738 3599 3670 3705 3845 3880 3861 3844 3744 3716 3644 3588 3680 3740 3546 3562 3490 3413 3465 3448 3409 3407 3440 3472 3354 3488 3337 3393 3373 3212 2887 2743 2676 2854 2433
1131 1190 1064 966 630 756 318 610 219 180 21 27 9 355 633 918 528 889 847 977 981 1273 1659 1978 1769 1310 1622 1175 993 1522 1209 1718 1548 1412 1499 1626 1626 1850 1848 1921 2076 2237 2365 2571 2820 3014 3066 3468 3756 3743 3542 3588 3768 3837 3695 3793 3714 3707 3606 3560 3533 3468 3393 3399 3495 3508 3677 3834 3845 3700 3638 3556 3559 3525 3517 3575 3570 3521 3324 3153 3038 3012 2852 3144 3181 3155 3109 3112 3202 3185 3061 3067 2803 2685 2696 2556 2295
1010 741 522 620 1066 504 622 496 2 120 206 41 88 218 887 743 803 573 958 926 1087 1278 1174 1634 2530 2004 1012 1806 997 1243 1162 1672 1677 1738 1738 1549 1763 1935 1912 1936 2119 2330 2418 2564 2710 2774 2830 3252 3682 3702 3563 3461 3494 3421 3521 3541 3647 3692 3637 3528 3528 3515 3441 3279 3216 3290 3346 3636 3722 3559 3511 3517 3480 3436 3489 3465 3413 3376 3290 3225 3096 3078 3034 3071 3141 2974 2942 2947 2989 2872 3078 3050 2704 2762 2824 2443 2482
1080 1296 665 711 344 469 205 0 1 82 131 141 198 800 677 752 681 795 902 1098 1480 1444 1432 1853 1486 1407 2007 1179 1349 1028 1271 1482 1704 1619 1494 1611 1700 1913 1790 1894 2248 2203 2370 2533 2579 2596 2746 3418 3650 3662 3552 3281 3317 3292 3230 3451 3416 3536 3622 3581 3530 3402 3244 3259 3190 3030 3123 3226 3336 3329 3309 3326 3364 3389 3404 3369 3306 3285 3210 3068 3056 3029 2997 3071 3069 2969 2990 2878 2917 3035 3035 2832 3050 2924 2893 2788 2663
1100 1105 788 375 110 350 269 119 156 147 30 134 96 592 752 1000 1159 1079 1471 1863 1753 1258 1745 2104 1580 1861 1887 1657 1464 966 1172 1395 1402 1408 1384 1831 1858 1865 1589 1764 1961 2115 2287 2430 2464 2507 2751 3411 3674 3434 3454 3287 3086 3097 3170 3125 2911 2454 3143 3359 3298 3231 2953 3066 2986 2883 2882 3022 3094 3014 3021 3014 3248 3300 3259 3274 3147 3031 3121 3003 3019 3065 3025 3073 3048 3039 3060 3072 3021 2941 2904 2870 2843 2802 2865 2666 2542
589 529 591 511 413 417 160 87 36 193 179 375 180 357 1090 1283 816 1314 1619 1204 1604 1820 1926 2323 1491 1296 1886 1766 1749 1603 922 1280 1251 1729 1948 1924 1845 1742 1498 1578 1829 2028 2230 2310 2346 2447 2768 3350 3511 3456 3406 2974 3044 3057 2986 2976 2754 2975 3096 3208 3122 2977 2752 2866 2834 2876 2802 2752 2753 2818 2806 2846 2941 2885 3010 2932 2987 3002 2945 3055 3038 3018 3036 3034 3116 3221 3194 3263 3274 3046 2859 3069 2801 2766 2769 2708 2602
480 269 325 64 148 368 255 81 41 24 286 190 473 844 791 790 989 1334 1790 1751 1472 1452 2000 2015 1714 1484 1396 1662 1857 1930 2414 1715 1464 1936 2094 1868 1788 1621 1300 1406 1537 1811 2056 2161 2241 2297 2793 3174 3168 3170 3007 2769 2444 2664 2686 2670 2769 2930 2955 3052 2943 2969 2909 2763 2751 2850 2789 2704 2579 2659 2816 2892 2903 2927 2931 2991 3012 2884 2927 2852 2936 2952 2921 2977 3141 3253 3280 3180 3181 3324 3313 2923 2776 2901 2699 2811 2765
782 207 328 246 260 220 94 79 24 82 205 369 984 691 659 809 1113 1728 1846 1743 1608 1337 1566 1829 1455 1498 1277 1576 1336 1374 2314 3337 1770 2097 1938 1786 1697 1497 1326 1121 1228 1507 1731 2018 2112 2284 2974 3042 3038 2963 2825 2683 2644 2462 2610 2617 2624 2808 3024 2916 2966 3025 2890 2849 2763 2830 2842 2604 2640 2803 2832 2921 2853 2874 2903 2900 2928 2921 2946 2968 2893 2916 2908 2817 3020 3153 3215 3167 3239 3364 3021 3100 3087 2788 2857 2942 3022
270 319 128 296 189 255 253 169 169 106 493 476 716 564 1271 982 1000 1224 1692 1544 1590 1821 1646 1717 1568 923 1050 1841 1488 1947 2214 2082 2104 2183 1848 1775 1694 1573 1245 1063 974 1203 1452 1888 2059 2382 2817 2974 2983 2835 2758 2752 2611 2581 2510 2549 2591 2766 2989 3016 3074 2965 2928 2997 2931 2823 2796 2835 2714 2693 2804 2824 2884 2920 2988 3005 3016 3005 3031 3012 2970 2944 2972 2880 3079 3096 3100 3197 3254 3119 3027 2951 2956 2974 3111 3016 3032
248 543 290 226 223 142 108 111 151 176 505 595 753 816 945 1028 1110 1394 1368 1258 1498 1781 2125 2144 1572 1216 1639 1158 1145 1658 1693 2192 2074 1877 1721 1672 1577 1452 1276 1130 812 1049 1461 1757 2038 2444 2555 2913 2737 2766 2744 2643 2636 2509 2514 2608 2585 2838 3052 2897 2844 2987 2926 2918 2820 2725 2794 2700 2722 2752 2924 2904 2955 2882 2861 2916 3112 3124 3039 2984 2933 2903 2907 2981 2964 2936 3046 3111 3025 2783 2912 3008 3108 3109 3104 3321 3438
354 75 318 258 149 113 54 154 210 138 526 381 841 934 1310 934 1302 1517 1420 1459 1689 1737 1980 1768 1636 1678 1389 1384 2080 2527 2324 1977 1914 1810 1634 1544 1621 1555 1393 1047 928 1177 1454 1690 2131 2427 2594 2510 2796 2312 2893 2559 2529 2478 2661 2687 2727 3200 3058 3071 3050 2803 2818 2728 2684 2850 2834 2799 2715 2894 2917 2905 2964 2935 2811 2946 2988 2978 3035 3022 3028 2962 2920 2968 2940 2972 2962 2991 3038 3063 3074 3103 3140 3091 3328 3337 3365
298 359 300 226 171 122 109 187 239 286 346 566 893 1179 1334 1263 1381 1790 1451 1140 1614 1638 1410 2018 1450 1607 1183 1191 1082 1618 1978 1741 1787 1728 1660 1661 1586 1468 1306 1079 1081 1153 1401 1800 2210 2304 2388 2478 2911 2844 2769 2686 2512 2498 3063 3004 3140 2938 3009 3079 3024 2916 2792 2802 2718 2718 2704 2859 2869 2794 2956 3009 3090 2999 2861 2874 3050 3124 3127 3123 3146 3070 2978 2992 3046 3023 3065 3079 3140 3234 3272 3272 3287 3344 3399 3360 3347
266 196 240 135 136 176 192 182 217 125 455 712 1020 654 1043 1259 1405 1827 1506 1301 1626 1550 1680 1858 1502 1393 989 912 1881 1877 1337 1715 1675 1559 1430 1074 806 979 1074 1043 1120 1258 1540 1991 2136 2202 2307 2610 2634 2648 2368 2522 2678 2865 3205 3029 3133 3158 3217 3110 3041 2927 2851 2859 2874 2857 2910 3047 3010 2966 3078 3025 3191 3087 2977 3001 3255 3194 3293 3271 3111 3035 3093 3065 3012 3054 3057 3133 3156 3241 3393 3385 3350 3342 3382 3500 3731
276 312 232 247 209 282 201 258 402 331 140 548 714 1281 1406 1374 1362 1900 1377 1343 1541 1616 1853 1972 1593 1588 1340 858 848 928 1064 1458 1604 1550 1319 965 1122 1129 1168 1287 1448 1544 1768 1924 2029 2196 2455 2551 2385 2296 2185 2490 2608 3049 3149 2982 3093 3107 3210 3167 3000 3062 3038 3044 3059 2983 3015 3132 3181 3312 3136 3148 3256 3236 3153 3212 3325 3254 3222 3211 3067 3065 3127 3054 3097 3100 3170 3179 3334 3420 3406 3441 3465 3536 3645 3778 3843
434 327 291 295 336 278 258 152 350 265 298 281 773 1130 1205 1281 1592 1958 1396 1506 1550 2175 1839 3021 1542 871 725 700 540 774 990 1724 1390 1193 1056 1317 1328 1290 1445 1519 1515 1580 1638 1847 2063 2352 2449 2365 2273 2199 2322 2415 2576 2864 2761 2998 3127 3035 3246 3241 3066 3051 2911 3098 3098 2991 2818 2880 3196 3249 3256 3260 3180 3184 3236 3296 3374 3240 3285 2827 2903 2961 3128 3134 3055 3124 3239 3300 3455 3501 3486 3588 3715 3728 3738 3847 3869
472 370 296 243 263 228 220 192 184 171 278 424 829 1038 1014 1518 1394 1588 1578 2145 1869 1960 1598 1637 1470 1431 841 706 576 543 1437 1165 892 1003 1519 1540 1440 1382 1294 1194 1230 1372 1558 1716 2010 2308 2342 2258 2211 2167 2263 2400 2659 2715 2645 2500 2888 3090 3159 3122 3156 3140 3109 3166 3110 3026 2859 2952 3056 3145 3286 3257 3104 3084 3108 3141 3344 3009 2902 2701 2684 2827 3036 3125 3086 3129 3265 3450 3552 3572 3638 3735 3830 3889 3962 3956 3868
552 458 329 311 219 209 433 185 281 340 289 442 701 830 966 1214 1541 1726 1808 1557 1817 1584 1850 1584 1571 1783 902 1113 415 879 1493 1056 1169 1304 1496 1514 1405 1288 1220 1192 1173 1343 1379 1624 1839 2041 2198 2171 2097 2023 2218 2473 2627 2625 2504 2417 3006 3226 3210 3270 3196 3264 3196 3238 3162 3155 3082 2963 2984 3131 3149 3034 3098 3208 2760 2896 2959 3145 2932 2946 2743 2877 3037 3228 3209 3247 3342 3442 3587 3690 3726 3828 3840 3880 3974 4011 4010
568 399 340 243 236 268 472 425 461 401 390 478 598 753 878 762 1055 1162 1632 1226 2043 1351 1460 1867 1480 1846 1676 1791 798 1245 1146 970 1128 1213 1268 1347 1343 1288 1135 1040 1066 1101 1370 1659 1678 1700 1942 1979 1993 2067 2313 2495 2561 2542 2431 2441 2985 3111 2940 2990 3099 3065 3176 3092 3094 2846 3034 2864 2872 2913 2755 3112 2765 2757 2628 3014 2892 3239 2940 3239 3025 3019 3074 3290 3390 3471 3555 3628 3660 3777 3868 3953 3979 3987 4133 3924 3811
523 482 357 314 244 296 600 661 485 535 479 391 509 510 507 685 962 1183 1037 1077 1792 1160 1497 1662 1410 1516 923 1274 856 1314 934 961 1065 1059 1078 1147 1183 1112 1084 968 809 1016 1257 1397 1352 1425 1612 1804 1935 2095 2342 2442 2457 2401 2354 2634 2759 2800 2840 2816 2988 3088 3432 3319 2932 3390 2828 2604 2584 2540 2992 2828 2484 2060 2586 2966 2941 3206 3176 3147 3404 3342 3226 3285 3409 3504 3655 3758 3841 3917 3990 4127 4260 4250 4009 3960 3910
642 558 456 328 342 521 480 849 646 479 716 597 505 536 571 780 1052 1404 1252 989 1582 1376 1364 1251 1322 1580 1110 1344 1455 980 914 977 1020 1025 1034 1016 1044 1073 1077 945 793 883 1012 870 920 1133 1442 1702 1862 2068 2343 2358 2273 2320 2444 2640 2699 2698 2760 2764 2868 2902 3154 3276 2870 2998 2636 2454 2538 2403 2577 2620 2552 2120 3225 2779 3002 3050 2864 2722 2991 3417 3638 3686 3653 3590 3501 3648 3832 4008 4271 4314 4298 4116 4021 3890 3868
626 493 398 429 584 572 748 753 725 836 939 576 611 701 742 680 951 893 1432 854 1308 1340 1372 1189 1159 1390 1238 1408 1950 966 822 884 963 972 961 883 858 1015 1067 969 845 698 528 239 340 842 1368 1586 1777 2073 2250 2273 2262 2378 2453 2606 2679 2655 2708 2756 2812 2781 2929 3020 2814 2850 2744 2447 2317 2363 2478 2456 2514 2365 2125 2800 2904 2703 2401 2217 2398 2712 3088 3319 3911 3433 3291 3101 3490 3462 3539 3813 3860 3966 3962 3894 3772
667 584 537 517 574 671 771 758 898 904 996 608 485 500 474 890 594 604 1106 1086 1146 1252 1270 1456 1122 1226 1008 1628 1804 996 817 680 784 783 789 736 750 877 975 955 883 553 228 89 191 854 1156 1401 1777 2081 2172 2276 2266 2406 2448 2724 2710 2620 2674 2725 2772 2734 2816 2872 2692 2764 2756 2570 2458 2341 2465 2376 2392 2272 2199 2341 2632 2682 2361 2217 2284 2461 2752 2966 3310 3297 3320 3203 3063 2846 2758 2871 2955 3026 3378 3525 3476
690 642 689 677 721 775 944 754 1297 1119 919 698 484 389 726 592 710 532 976 1126 1157 1105 1427 1267 991 998 1080 1470 1353 966 705 377 480 511 603 603 667 755 805 902 716 229 95 33 126 712 988 1258 1784 1982 2173 2280 2290 2388 2442 2758 2698 2524 2601 2686 2722 2753 2751 2798 2672 2688 2809 2647 2661 2410 2464 2359 2118 2037 2062 2152 2300 2426 2436 2366 2354 2480 2688 2785 2796 2773 2821 2893 2916 2859 2632 2502 2571 2652 2816 3061 3103
666 641 684 702 966 969 887 568 1040 846 649 547 453 648 488 643 662 717 868 1162 1155 1186 1614 1216 1161 1026 1130 1026 1069 766 656 168 298 249 322 369 537 615 614 732 189 34 11 13 184 562 996 1397 1725 1850 2147 2226 2302 2372 2429 2657 2655 2498 2534 3020 2900 2708 2754 2784 2749 2759 2816 2831 2664 2588 2685 2443 2300 1965 1998 2218 2299 2314 2448 2431 2496 2593 2708 2757 2744 2650 2515 2524 2618 2622 2498 2352 2732 2812 2827 3006 3021
763 704 743 825 878 855 648 602 839 759 959 794 714 578 637 521 565 838 768 1024 892 957 1510 1162 1213 1065 1162 918 895 643 463 130 119 95 98 85 225 266 274 283 32 0 0 47 316 580 1061 1577 1700 1802 2070 2191 2262 2358 2378 2492 2550 2492 2528 2725 2857 2918 2960 2794 2740 2800 2884 2898 2814 2671 2517 2512 2416 2337 2163 2310 2430 2324 2224 2131 2385 2678 2682 2702 2637 2538 2369 2292 2410 2316 2212 1981 1629 1922 2190 2223 2057
707 696 772 868 910 1020 772 915 933 924 1239 880 495 629 623 662 706 508 837 703 858 1158 1244 1179 1395 835 791 1017 836 728 588 92 113 92 60 49 68 73 82 40 1 0 0 163 459 786 1266 1618 1699 1803 1954 2102 2208 2372 2315 2338 2482 2490 2572 2669 2786 3119 2946 2848 2773 2809 2865 2903 2886 2760 2580 2411 2352 2213 2032 2327 2424 2379 2149 1891 1772 2189 2506 2504 2382 2191 2041 2063 2116 2178 2167 1936 1284 1245 1304 1336 1820
1178 1100 817 659 655 740 868 890 987 655 812 885 680 535 593 478 384 389 593 474 966 1250 1118 1078 1315 1096 901 899 705 660 717 155 141 124 57 51 48 48 31 4 0 0 4 274 574 936 1481 1670 1687 1747 1832 2053 2200 2344 2313 2276 2419 2522 2529 2644 2700 2879 2918 2819 2824 2773 2813 2814 2771 2696 2595 2446 2263 2052 1920 2118 2263 2268 2049 1719 1480 1423 1814 2110 2142 2076 1793 1810 1942 2030 1629 1116 1056 935 960 974 959
1379 1202 1099 914 848 940 1105 945 1032 728 743 588 512 498 433 468 429 432 526 525 1087 1117 999 984 1298 1068 732 572 684 695 552 145 128 128 79 76 54 44 1 0 0 0 9 396 686 1049 1581 1687 1688 1676 1761 1991 2195 2325 2371 2256 2383 2492 2472 2634 2678 2789 2918 2844 2752 2696 2748 2737 2671 2590 2470 2301 2467 1988 1616 1743 1961 1989 1863 1625 1482 1401 1400 1628 1873 1936 1761 1634 1682 1394 1113 1213 1240 934 789 794 846
1143 1120 899 824 866 861 1515 1244 1223 810 597 557 554 565 432 490 430 373 577 671 1323 925 924 745 1252 1030 486 680 1221 775 637 287 92 106 88 79 60 53 0 0 0 0 68 523 759 1326 1550 1634 1634 1668 1800 2021 2121 2255 2306 2229 2339 2380 2514 2600 2785 2746 2876 2751 2638 2581 2591 2600 2568 2456 2383 2181 2162 2004 1508 1138 2001 1746 1641 1358 1193 1474 1320 1354 1501 1598 1394 1335 1341 1292 1233 1182 1054 906 842 829 805
860 1077 917 949 670 541 1030 931 907 628 479 459 388 180 359 480 440 454 441 758 1125 860 1045 762 1104 991 671 564 726 596 464 205 58 83 89 77 56 14 0 0 2 3 88 477 864 1340 1471 1589 1849 1822 1809 2017 2111 2161 2210 2161 2174 2394 2593 2630 2791 2786 2769 2758 2568 2467 2454 2474 2404 2235 2142 1992 2087 2041 1799 1466 1378 1341 1239 1008 1113 1614 1472 1300 1349 1364 1328 1352 1345 1304 1255 1064 1353 1540 1042 762 668
786 888 1037 695 344 278 890 946 1053 833 747 440 450 329 116 361 464 341 511 624 1010 914 952 784 809 833 790 724 542 292 324 139 51 44 67 66 45 1 0 0 2 3 39 521 944 1264 1498 1618 1843 1895 1881 1936 2326 2249 2203 2166 2176 2458 2590 2641 2769 2783 2521 2513 2436 2329 2307 2264 2141 1940 1939 1860 2016 2033 1878 1913 1874 1737 1453 839 759 1364 1574 1438 1468 1548 1495 1381 1376 1333 1226 1205 1086 605 492 755 778
836 484 233 179 18 1 754 958 516 455 716 722 572 67 184 259 343 356 602 756 615 731 788 511 379 306 612 652 560 430 340 73 33 40 23 20 22 0 0 0 2 2 14 615 913 1170 1391 1563 1774 1799 1832 1836 2101 2308 2328 2261 2237 2402 2595 2636 2567 2552 2226 2140 2147 2056 1982 1964 1885 1675 1606 1597 2025 2084 2007 1882 1827 1692 1134 700 545 767 945 1303 1473 1503 1575 1524 1392 1313 1287 1199 770 851 926 886 880
934 484 120 254 66 108 353 942 647 837 917 726 371 234 55 69 201 570 610 656 862 769 520 516 512 242 475 586 254 297 259 23 18 16 6 0 0 0 0 0 0 0 0 597 870 1039 1317 1454 1838 1631 1721 1722 1875 2048 2260 2288 2277 2252 2383 2425 2253 2193 2026 1931 1976 1920 1783 1704 1643 1451 1511 1602 1849 1912 2107 2052 1948 1652 1388 824 661 591 701 590 823 1200 1265 1293 1157 1089 574 694 926 866 800 892 1066
265 262 211 290 227 251 228 470 592 483 354 320 180 207 215 226 527 533 651 557 693 804 688 374 290 153 477 481 492 383 308 12 6 13 0 0 0 0 0 3 0 0 0 77 686 860 1159 1252 1468 1575 1585 1503 1629 1790 1882 1958 2080 1907 2009 2182 2100 1966 1880 1733 1628 1548 1612 1373 1274 1306 1469 1795 1992 1767 1893 1983 1911 1642 1557 1416 1071 793 858 790 540 478 652 662 609 675 801 819 922 808 937 1113 1178
99 153 153 27 163 282 270 97 382 264 365 304 132 142 167 211 375 414 611 791 624 909 723 420 608 865 278 412 217 119 341 4 2 0 8 37 0 0 0 0 0 0 0 0 241 550 1008 1137 1256 1434 1524 1588 1554 1674 1626 1571 1547 1580 1776 1928 1927 1706 1636 1610 1457 1424 1304 1140 1031 1075 1365 1767 2169 1862 1707 1763 1742 1591 1603 1432 1308 1352 1222 1010 680 590 472 828 1107 999 894 852 857 990 1130 1218 1131
244 340 163 150 8 159 314 311 231 253 83 64 138 191 161 191 308 506 585 615 870 911 774 1259 1034 912 83 334 27 15 1 1 0 0 10 4 0 0 0 0 0 0 0 0 69 296 821 987 1023 1256 1320 1424 1538 1548 1411 1424 1350 1412 1433 1302 1149 1388 1482 1330 1133 1090 958 856 759 610 1060 1631 1889 1998 1663 1515 1503 1639 1457 1312 1285 1276 1122 910 728 573 595 995 945 912 888 998 1054 1186 1359 1045 1062
330 628 536 314 147 263 919 204 271 60 4 66 42 3 257 247 377 504 623 983 806 643 626 947 802 596 69 31 0 1 0 0 0 0 0 0 0 0 0 0 0 0 0 0 0 207 592 744 933 1154 1059 1141 1324 1315 1274 1357 1338 1226 1167 1145 1089 983 1010 841 825 845 578 597 702 641 664 1500 1862 1974 1862 1558 1399 1862 1963 1477 1450 1429 1321 1211 1094 712 920 910 918 984 972 1797 1669 1214 1135 1103 1238
492 410 351 232 362 93 471 170 68 0 0 60 86 228 242 236 142 375 794 489 522 449 527 1066 650 620 439 0 0 0 0 0 0 0 0 0 0 0 0 0 0 0 0 0 0 74 122 308 638 885 733 898 1016 969 1039 1223 1034 402 411 151 765 789 150 193 612 769 0 0 0 6 427 1081 1748 1910 2008 1676 1483 1359 1509 1701 1795 1754 1628 1486 1378 1264 961 1696 1901 1525 1337 1134 1273 1162 1188 1286 1419
404 188 267 154 153 339 320 29 102 82 30 64 391 50 96 12 665 524 917 403 638 572 974 1180 934 701 430 36 0 0 0 0 2 0 0 0 0 0 0 0 0 0 0 0 0 4 8 154 233 229 111 716 497 604 854 964 468 98 220 0 0 1 8 41 29 10 16 0 0 0 332 743 1318 1679 1751 1899 1491 1395 1416 1473 1562 1613 1589 1471 1276 738 1038 1473 1556 1348 1292 1121 1158 1324 1413 1448 1501
236 33 24 105 110 160 114 468 519 661 562 17 310 340 349 1042 904 1168 869 1079 147 490 970 1014 980 1040 811 445 14 14 0 0 0 0 0 0 0 0 0 0 0 0 0 0 0 0 10 211 123 107 57 258 275 651 707 469 155 130 44 7 1 1 13 203 21 32 8 74 261 81 229 770 1074 1363 1562 1737 1706 1447 1426 1441 1501 1588 1546 1399 1030 662 599 994 1224 1398 1421 1410 1258 1314 1398 1468 1548
199 161 62 55 77 99 62 202 631 734 563 458 384 92 86 584 646 522 1244 458 61 598 532 372 337 349 382 571 488 5 0 0 0 0 0 0 0 0 0 0 0 0 0 0 0 1 16 112 78 37 4 206 388 802 891 326 514 638 189 323 1086 793 1648 1241 345 11 5 556 1112 769 723 906 1070 1220 1464 1761 1883 1670 1727 1645 1580 1600 1666 1581 1349 1258 1129 1059 995 962 1061 1315 1484 1399 1289 1336 1427
28 166 16 83 54 522 324 480 400 167 178 266 159 11 67 310 530 560 940 906 411 262 100 136 167 102 123 287 368 99 0 0 0 0 0 0 0 0 0 0 0 0 0 0 0 0 16 49 53 13 0 67 641 794 844 553 690 434 504 639 776 924 806 1015 1010 855 58 719 1297 969 946 1093 1077 1136 1359 1920 1876 1984 1977 2034 1970 1950 1964 1843 1638 1450 1228 878 895 965 1030 1020 1160 1335 1266 1233 1343
12 39 142 148 214 323 331 366 115 55 245 236 265 24 2 367 327 602 601 717 220 123 118 109 137 156 264 255 319 135 0 0 0 0 0 0 0 0 0 0 0 0 0 0 0 0 10 12 22 14 0 46 517 698 534 846 836 366 655 540 719 980 858 1064 1065 867 6 410 1081 1035 1046 1235 1250 1198 1412 1876 2130 2178 2096 2091 2122 2075 1988 1848 1634 1419 1157 911 943 1041 1226 1324 1086 1116 1120 1368 1352
21 0 1 144 263 355 387 325 58 70 737 258 314 80 32 4 25 86 669 448 473 554 516 307 211 172 293 236 208 159 0 0 0 0 0 0 0 0 0 0 0 0 0 0 0 0 4 0 13 18 2 111 325 683 385 823 929 333 593 516 809 938 884 1016 832 389 51 470 736 1002 1066 1292 1507 1484 1593 1757 2082 2189 2245 2070 2006 1938 1876 1784 1556 1239 1020 878 936 1136 1269 1452 1474 1535 1532 1257 1294
1 0 111 310 418 292 351 237 276 552 386 310 80 180 19 0 26 46 192 142 94 216 422 375 199 275 351 337 185 234 13 0 0 0 0 0 0 0 0 0 0 0 0 0 0 0 0 0 11 20 16 102 173 447 634 534 781 489 449 534 759 962 673 555 804 800 410 1088 629 926 997 1316 1523 1625 1626 1726 1794 1961 2208 2106 1874 1821 1803 1769 1630 1302 1113 1080 1110 1229 1318 1512 1669 1729 1656 1365 1185
0 45 253 445 486 449 321 451 560 572 182 236 214 184 48 43 48 75 145 23 0 11 203 230 130 189 418 402 319 300 103 0 0 0 0 0 0 0 0 0 0 0 0 0 0 0 0 0 0 8 18 72 166 304 328 235 382 765 371 508 687 589 821 483 586 721 84 492 357 675 810 1142 1472 1531 1527 1529 1584 1637 1697 1913 1932 1836 1786 1716 1616 1382 1202 1293 1408 1466 1530 1644 1746 1791 1706 1529 1362
0 291 387 396 521 514 435 491 419 38 1 0 304 287 84 102 218 151 180 131 2 10 46 82 125 226 379 434 377 325 35 0 0 0 0 0 0 0 0 0 0 0 0 0 0 0 0 0 0 0 1 31 218 274 369 661 736 971 486 582 724 652 863 596 412 660 264 399 130 432 787 776 1251 1336 1311 1327 1388 1453 1477 1509 1639 1714 1722 1924 1882 1623 1507 1455 1508 1585 1680 1778 1807 1812 1808 1663 1401
0 0 433 514 582 569 432 356 219 25 2 12 0 354 132 6 28 110 134 118 63 83 138 104 282 348 361 335 345 271 40 0 0 0 0 0 0 0 0 0 0 0 0 0 0 0 0 0 0 0 0 10 198 253 404 1090 1136 1113 704 823 829 919 1065 1172 801 505 424 484 590 382 824 1160 1111 1316 1261 1240 1318 1317 1242 1167 1277 1367 1460 1603 1745 1766 1694 1655 1647 1700 1777 1839 1863 1812 1681 1457 1276
0 0 0 8 233 317 23 40 193 47 0 137 243 342 205 62 1 135 158 158 153 146 187 284 363 374 348 268 270 200 48 0 0 0 0 0 0 0 0 0 0 0 0 0 0 0 0 0 0 0 0 0 374 179 255 1164 1447 1294 908 982 1011 1041 1115 1313 1240 983 802 680 758 1004 934 1166 1306 1339 1444 1466 1419 1376 1338 1298 1229 1346 1442 1521 1722 1808 1811 1736 1732 1793 1854 1900 1806 1638 1476 1386 1359
0 0 0 0 86 30 0 68 80 97 83 27 41 346 169 40 46 43 143 150 175 225 170 153 275 336 296 249 220 181 60 13 3 0 0 0 0 0 0 0 0 0 0 0 0 0 0 0 0 0 4 22 507 240 228 585 1510 1545 1370 1279 1274 1458 1502 1461 1378 1122 844 635 709 794 878 1009 1205 1253 1269 1311 1292 1235 1244 1227 1338 1357 1449 1504 1702 1869 1960 1950 1905 1890 1924 1828 1624 1523 1468 1454 1431
0 0 0 0 15 84 11 92 4 17 1 85 367 269 53 1 0 0 51 92 125 203 197 131 134 170 188 203 190 202 72 34 7 3 3 1 0 0 0 0 0 0 0 0 0 0 0 0 0 0 6 56 610 406 397 327 1023 1549 1651 1620 1520 1501 1579 1770 1810 1604 1187 752 630 657 645 625 865 1181 1262 1164 1082 1045 1012 997 959 1202 1340 1455 1537 1739 1870 1956 2002 1976 1824 1580 1540 1547 1506 1448 1404
0 0 0 0 0 0 0 4 3 39 27 47 253 51 116 0 0 0 4 52 92 203 166 101 83 53 48 86 178 239 110 56 24 9 124 21 5 0 0 0 3 1 0 0 0 0 9 6 10 2 39 94 700 769 789 437 688 1148 1577 1720 1747 1804 2110 1959 1953 2075 2048 1704 1340 1204 1095 1018 874 734 793 980 1038 1074 1078 1058 1068 1034 1068 1147 1250 1461 1560 1611 1618 1601 1562 1572 1599 1588 1447 1238 1087
0 0 11 11 1 11 4 126 235 221 0 21 65 6 0 0 0 0 3 29 59 137 151 93 134 152 138 183 251 286 223 228 220 224 256 61 48 27 10 37 229 168 0 0 0 0 12 42 63 52 109 160 618 1050 1124 904 781 1079 1395 1628 1793 2047 2201 2240 2083 2026 2036 2046 2041 1879 1695 1549 1401 1245 1078 947 820 1009 1211 1320 1310 1159 1259 1305 1462 1589 1653 1673 1711 1685 1653 1651 1685 1758 1616 1392 1301
0 0 0 0 148 272 12 41 18 23 1 39 179 22 0 0 1 0 7 12 24 81 101 166 270 261 244 256 322 333 352 325 328 322 286 148 75 215 222 179 286 237 32 0 0 0 10 82 125 104 207 251 383 1185 1355 1541 1336 1397 1606 1846 1944 2140 2440 2625 2646 2496 2399 2372 2313 2241 2034 1749 1518 1463 1401 1294 1320 1414 1686 1873 1689 1298 1300 1369 1780 1917 1944 1983 2021 2063 2088 2074 2048 2255 2359 2339 2276
0 0 0 89 55 103 46 7 12 40 2 2 0 0 0 0 0 0 1 22 41 59 90 253 394 380 351 342 370 381 452 458 426 342 297 209 199 239 265 261 315 265 67 29 0 0 66 141 203 168 269 353 358 1033 1536 1896 1947 1894 2015 2312 2435 2538 2676 2854 2997 3070 3057 3005 2955 2876 2750 2556 2402 2403 2348 2313 2343 2356 2348 2278 2048 1643 1141 1098 1280 1468 1596 1523 1486 1534 1717 1896 2007 2060 2413 2575 2524
0 0 0 485 32 64 84 26 13 0 0 6 0 0 0 0 0 0 12 4 60 132 246 356 472 472 433 396 371 372 446 444 397 347 334 242 230 270 292 295 284 312 294 43 2 0 170 237 407 304 378 545 558 852 1540 1876 2187 2242 2317 2532 2812 2961 3037 3083 3164 3224 3254 3241 3226 3240 3287 3268 3232 3161 2972 2615 2447 2019 1814 1762 1907 2372 2376 2280 2571 2884 2840 2754 2516 2222 2132 1980 1710 1619 1719 1919 1965
0 0 0 70 18 147 12 63 121 13 36 0 0 0 0 0 0 0 5 14 38 337 407 435 466 486 458 393 375 421 486 474 424 379 366 235 249 263 286 295 278 298 364 319 4 0 260 418 543 575 564 757 831 865 1250 1669 1969 2211 2190 2274 2531 2894 3142 3223 3249 3223 3221 3260 3250 3013 2686 2337 2409 2994 3358 3558 3462 3397 3438 3513 3477 3245 2922 2747 2674 2741 2752 2610 2610 2638 2633 2563 2412 2283 2131 1996 1854
0 0 0 0 40 270 231 182 317 131 0 18 0 0 0 0 1 0 0 0 34 153 444 505 483 455 431 371 362 412 552 532 446 416 354 209 226 247 267 297 286 365 400 410 325 12 402 609 736 799 774 931 1092 1084 1305 1515 1692 1913 1932 2008 2258 2525 2788 2880 2930 2984 3003 2920 3769 3040 3077 3364 3637 3457 3346 3145 3166 3111 3100 3078 3106 3048 2884 2815 2732 2692 2641 2568 2537 2501 2516 2533 2513 2477 2404 2348 2152
Wind_Speed
4 3 3 5 6 6 6 nan 4 3 nan nan nan 1 2 4 2 0 3 3 1 1 1 2 5 6 4 5 6 5 7 5 8 3 6 4 5 12 10 10 12 10 9 7 6 7 8 11 11 12 11 10 10 10 9 8 7 6 6 6 7 7 6 6 6 5 4 4 3 3 2 2 3 4 4 4 5 5 4 4 3 3 3 2 3 2 2 2 2 1 1 1 1 1 2 2 3
2 3 3 4 6 5 5 5 3 2 nan nan nan 3 3 4 1 4 5 5 2 3 3 5 5 11 12 3 6 1 8 7 4 3 5 3 8 6 8 12 13 11 8 7 7 7 7 9 12 11 12 12 11 11 11 10 9 8 8 7 7 7 7 6 6 6 6 5 4 3 3 4 4 4 5 4 3 3 3 3 3 3 3 3 3 3 3 3 3 3 2 2 2 3 2 3 4
4 3 5 5 5 4 3 3 nan 1 1 nan nan 4 7 2 5 4 6 6 4 3 2 5 7 4 6 3 4 3 3 5 9 6 5 10 9 4 9 12 12 10 10 6 7 7 7 9 13 13 13 14 13 12 12 12 11 10 9 8 7 7 7 7 6 6 6 6 5 5 4 4 5 6 6 5 5 4 4 3 4 4 4 4 4 5 5 5 5 4 4 4 4 3 3 2 2
6 5 2 4 5 4 4 nan nan nan 2 4 3 4 4 5 7 6 3 3 4 3 3 6 5 6 4 4 3 6 4 4 3 11 5 7 2 9 9 10 10 8 8 6 7 7 7 10 14 13 13 15 14 14 13 13 13 12 10 8 8 8 8 8 7 6 7 7 7 6 6 6 7 8 7 7 6 6 5 6 6 6 6 6 7 7 7 7 7 7 6 5 4 4 3 3 2
8 6 6 6 4 5 5 2 1 1 nan 3 nan 3 7 9 7 5 2 1 5 2 4 4 6 6 5 2 5 4 3 7 5 2 6 3 5 8 10 10 9 9 8 7 7 8 8 15 15 15 14 15 14 14 14 13 13 13 11 10 9 9 9 8 8 8 8 7 7 7 7 8 9 9 9 8 7 7 8 7 8 8 8 8 8 9 9 9 8 8 7 6 5 5 4 3 3
8 7 5 6 6 4 5 nan nan 3 3 2 3 7 6 7 6 6 1 3 6 7 6 4 3 2 6 6 5 4 4 1 1 4 5 6 10 11 11 9 8 8 8 7 7 7 8 17 16 16 15 15 14 14 13 13 13 11 11 10 11 10 10 10 9 9 9 8 8 8 7 7 9 10 9 8 8 8 9 9 9 9 10 10 10 10 10 9 9 8 7 7 6 5 5 4 4
5 7 7 nan 5 5 4 nan nan nan 2 6 3 3 1 5 7 3 2 1 3 9 7 4 4 6 6 4 5 5 4 4 3 4 4 11 11 10 11 8 8 8 8 7 6 7 9 19 18 17 16 16 16 15 14 13 12 11 10 11 11 11 10 10 11 10 9 9 9 8 7 7 8 8 8 8 8 8 9 9 9 10 10 10 10 10 10 9 9 8 8 8 7 6 6 6 7
6 6 5 5 4 6 nan nan nan nan 2 5 3 0 1 4 9 5 2 1 3 3 4 3 1 5 4 6 4 6 8 5 10 12 13 11 10 11 10 8 8 8 7 6 6 6 11 19 19 18 17 17 16 16 14 13 12 12 12 11 11 11 10 10 10 10 9 9 9 8 7 7 7 8 7 7 7 8 8 8 9 9 10 10 10 9 9 9 8 9 9 9 8 8 8 8 8
5 7 6 6 6 6 5 2 4 5 2 1 3 4 6 3 7 7 2 3 3 3 1 1 2 7 1 5 7 6 9 13 15 17 14 13 11 12 8 9 9 8 7 7 6 6 7 15 17 19 18 17 17 15 15 14 14 14 13 11 11 10 10 10 10 9 9 9 9 8 8 8 8 7 7 7 7 8 8 9 9 9 9 10 9 9 9 9 10 10 10 10 9 9 9 9 9
4 3 5 7 9 7 7 4 5 1 4 7 4 4 1 1 4 5 2 1 2 2 1 2 2 4 3 7 7 10 10 14 16 14 13 12 11 10 10 10 10 10 7 7 6 5 6 13 18 18 19 18 17 17 16 16 17 16 13 12 11 10 10 10 9 9 9 9 9 9 9 9 9 8 8 8 9 9 9 9 10 10 10 10 11 10 10 11 11 11 11 10 10 9 9 10 10
3 nan 3 7 8 9 nan 8 6 4 3 2 3 4 3 3 3 1 1 2 2 1 2 1 4 6 5 4 5 7 12 16 14 12 11 11 11 10 8 7 8 10 8 8 6 5 7 9 16 19 19 19 19 18 19 20 19 17 14 12 11 10 10 10 10 10 10 9 9 10 10 10 9 9 9 9 10 10 11 11 11 12 12 12 12 11 12 12 12 12 11 10 10 10 10 11 11
4 4 4 6 6 8 9 10 9 4 2 2 3 5 5 1 4 2 2 5 0 3 1 2 4 5 8 5 5 6 12 13 11 10 9 9 8 11 7 4 7 8 9 8 6 5 7 8 9 15 19 18 19 20 20 21 20 18 15 13 12 11 11 10 10 10 10 9 10 10 10 10 9 10 10 10 10 11 12 12 13 13 13 12 12 12 12 12 12 12 11 11 10 11 12 13 13
2 1 4 4 4 8 9 11 10 4 5 3 4 7 3 1 3 3 3 4 3 5 2 2 5 5 8 5 3 6 12 10 9 9 9 6 7 7 7 6 6 7 7 7 6 6 7 8 9 10 13 20 20 20 21 21 20 19 16 14 13 12 12 11 11 10 9 9 10 10 10 10 10 11 11 11 12 12 13 12 13 14 13 12 12 12 11 12 12 12 12 12 12 12 13 14 14
5 4 5 5 2 4 8 10 11 9 7 5 2 5 3 2 3 5 4 6 2 5 4 5 6 8 7 6 3 8 7 6 7 6 5 8 8 9 8 5 6 6 7 7 7 6 7 8 8 8 12 12 13 18 21 20 20 20 18 16 15 14 13 12 11 11 10 10 10 10 11 10 11 11 11 11 12 12 12 13 14 13 13 12 12 11 11 12 13 13 13 13 13 14 14 14 14
8 7 7 8 6 5 3 8 12 11 5 1 2 6 4 1 4 5 2 5 3 4 5 6 7 11 6 10 3 2 5 7 5 4 10 10 10 9 7 5 6 6 6 7 6 5 7 7 8 9 10 10 11 11 11 16 21 20 20 18 17 16 15 14 13 12 12 12 12 12 11 11 10 11 11 11 11 11 12 13 13 12 12 12 12 11 12 13 14 14 14 14 14 14 13 13 14
9 9 9 8 6 5 3 5 9 6 3 6 6 8 4 4 2 3 3 7 6 6 5 6 5 7 10 8 11 5 10 8 6 9 11 11 10 8 6 6 5 5 6 7 6 6 6 8 8 9 9 9 9 9 11 13 18 20 19 19 18 17 17 15 15 14 14 13 12 12 11 9 10 9 11 9 11 12 13 11 12 12 12 12 12 13 14 14 15 15 14 14 14 14 13 13 14
9 9 9 9 8 6 4 4 9 4 2 4 8 8 5 1 3 3 7 8 5 6 7 6 8 11 16 10 12 10 13 8 8 9 10 6 6 3 3 4 3 5 7 7 6 6 7 8 9 7 9 9 9 9 10 11 14 18 17 18 18 17 16 16 15 15 14 13 12 12 12 9 9 9 10 9 12 10 13 13 13 13 14 14 14 14 15 15 16 16 15 14 13 14 13 14 15
9 9 9 10 11 9 7 6 8 7 5 3 8 11 7 3 5 5 7 7 6 7 7 7 10 12 13 12 11 11 11 8 7 5 5 4 3 1 2 3 5 7 7 6 7 6 7 9 9 8 8 8 8 9 9 9 12 14 12 12 12 14 14 14 12 10 11 10 13 11 10 11 11 11 11 11 11 12 14 16 16 16 16 16 16 16 16 15 16 16 15 14 14 13 14 9 9
10 9 9 11 11 11 11 9 9 9 2 1 3 10 10 2 8 5 4 4 5 6 5 7 10 11 12 12 5 10 8 8 5 4 4 3 2 3 3 4 6 7 6 7 7 8 6 7 7 8 8 8 8 8 7 8 10 9 10 10 10 12 11 10 9 10 9 11 11 9 10 11 11 11 11 12 12 16 16 19 18 18 17 17 16 16 16 16 15 15 15 14 14 14 10 7 7
11 10 12 12 12 10 12 14 14 13 8 5 2 7 9 9 9 10 3 6 4 5 8 7 10 9 5 5 6 7 9 7 6 4 3 2 2 4 4 6 7 8 8 8 6 6 5 6 7 7 8 7 7 7 7 8 8 8 8 8 8 8 9 8 9 9 9 10 10 9 10 10 10 10 13 17 17 14 14 18 19 18 17 16 16 13 14 15 16 15 15 15 12 8 6 6 6
13 12 13 13 13 11 11 14 13 14 12 5 2 9 10 7 10 9 8 10 2 3 3 5 11 11 6 5 10 7 8 7 4 2 1 2 4 4 6 7 8 7 8 7 6 6 6 6 6 7 7 7 7 7 7 9 8 7 7 7 7 8 8 8 9 9 9 10 10 10 10 10 10 10 10 10 11 11 10 10 11 10 8 8 11 7 7 8 8 7 7 8 6 6 6 6 5
15 18 16 15 12 10 13 14 13 14 13 7 5 4 5 16 12 7 8 9 7 4 5 5 2 6 7 5 10 9 7 6 2 1 3 5 6 6 7 6 6 6 7 nan 8 6 7 7 7 7 7 7 7 7 8 9 8 8 8 7 7 7 8 8 9 9 9 10 10 9 9 9 10 9 9 9 9 7 7 7 7 7 6 6 5 7 6 5 5 5 5 4 5 5 6 6 5
14 16 18 20 18 13 12 13 15 22 22 19 9 2 12 8 11 8 11 11 19 14 11 8 2 2 3 7 10 8 6 4 1 3 4 6 5 7 8 6 8 8 nan nan 8 7 8 8 8 7 7 6 6 6 6 8 8 8 8 7 7 8 8 8 9 9 9 10 10 9 8 8 8 8 8 7 7 5 5 5 5 4 5 5 4 4 5 4 4 4 3 4 5 5 6 6 6
16 14 15 17 18 18 14 12 18 18 19 17 9 11 6 7 6 15 12 17 22 17 14 9 4 2 1 4 11 8 7 3 2 3 4 5 6 8 8 8 8 nan nan nan 8 9 9 10 8 8 6 6 5 6 7 8 7 7 8 7 8 8 7 8 8 8 8 9 9 8 7 6 6 7 7 5 6 4 5 4 3 3 4 4 3 4 5 4 5 5 4 4 5 5 5 5 5
17 15 17 18 17 15 15 15 17 17 15 16 14 11 3 1 8 16 11 15 17 19 13 8 5 7 6 7 9 10 9 5 1 nan nan nan 7 8 8 8 nan nan nan nan 8 9 10 9 8 8 5 6 5 6 8 7 7 7 7 7 7 8 7 7 7 7 7 8 8 8 6 6 6 8 8 6 5 6 5 4 3 3 3 3 2 4 4 5 5 5 5 5 4 4 3 3 3
19 22 14 15 16 14 17 17 19 19 16 18 13 6 3 2 13 13 14 13 12 15 9 6 10 5 7 9 8 9 11 nan 2 nan nan nan nan nan nan nan nan nan nan 8 8 8 8 7 9 9 7 7 6 7 7 7 8 7 7 7 6 7 7 7 6 6 7 7 7 8 8 7 8 9 8 6 6 7 6 5 4 3 4 4 3 3 3 3 5 4 4 4 3 2 3 4 5
14 16 15 17 17 14 16 20 20 21 18 16 11 5 6 8 9 12 15 18 20 20 9 8 10 6 5 11 10 12 14 7 4 5 nan nan nan nan nan nan nan nan nan 7 7 7 6 6 9 9 7 7 6 7 7 8 7 8 8 7 6 7 7 6 6 6 7 7 8 8 9 8 8 8 7 7 7 7 5 5 5 4 4 4 4 3 2 4 4 4 4 2 1 2 1 2 3
12 17 13 18 20 19 16 19 21 21 16 10 8 7 9 6 8 15 20 21 18 15 11 7 8 9 9 10 12 15 18 8 9 8 nan nan nan nan nan nan nan nan nan 7 7 6 5 8 9 9 7 7 7 7 7 7 8 8 8 7 7 8 7 7 7 8 9 8 9 9 9 9 8 8 9 8 7 6 6 6 5 4 5 4 5 5 5 5 5 3 2 3 2 2 2 2 4
10 13 12 14 18 14 14 21 22 20 16 9 8 10 7 7 6 17 17 14 12 12 12 9 11 12 13 13 15 16 23 11 nan 10 nan nan nan nan nan nan nan nan nan 7 7 5 7 7 8 9 6 6 7 7 7 8 8 9 9 9 9 9 8 9 9 9 10 9 10 11 10 9 8 8 8 8 6 6 6 5 5 6 6 5 5 7 6 5 4 4 3 4 3 2 1 1 2
8 12 15 11 13 14 13 16 21 19 16 10 5 8 6 4 7 14 18 14 16 15 14 13 12 9 10 11 14 17 23 14 nan nan nan nan nan nan nan nan nan nan nan 6 6 6 6 7 7 7 6 6 7 6 7 7 9 9 9 9 9 9 9 9 9 9 10 9 9 10 9 8 8 8 6 6 6 7 8 6 6 6 5 6 5 5 5 6 6 6 5 6 5 5 3 2 1
10 12 14 14 12 15 16 19 22 17 16 11 4 5 8 8 12 16 18 18 17 12 11 11 14 12 13 14 16 15 20 17 nan nan nan nan nan nan nan nan nan nan nan 6 7 6 7 8 7 7 7 7 6 7 8 9 10 9 9 9 9 9 9 9 9 9 9 9 8 9 9 8 9 9 7 7 8 8 10 8 7 7 6 5 5 5 5 5 5 5 5 6 5 6 7 6 6
10 9 12 12 nan nan 17 20 21 18 14 10 4 nan 6 10 12 14 16 20 21 15 11 9 12 9 8 11 13 15 18 nan nan nan nan nan nan nan nan nan nan nan nan 6 7 6 7 8 7 7 7 8 8 8 10 10 10 10 9 9 9 8 9 9 10 10 10 9 9 9 10 10 10 9 8 8 10 8 9 8 8 7 5 5 7 7 6 7 7 7 8 9 8 8 9 10 10
8 12 13 13 nan 16 16 18 21 20 17 9 6 4 nan nan 13 12 16 25 22 19 23 24 16 4 5 11 11 14 17 nan nan nan nan nan nan nan nan nan nan nan nan 5 7 7 8 8 8 7 8 9 9 9 10 10 10 11 10 10 10 9 10 11 11 12 12 10 9 9 9 9 9 9 8 8 8 8 8 8 6 4 4 5 7 7 8 9 10 10 10 9 12 8 7 4 4
7 9 13 14 13 15 17 17 16 18 18 11 8 5 10 10 11 14 20 26 23 23 22 24 20 21 13 12 16 15 17 nan nan nan nan nan nan nan nan nan nan nan nan nan 7 6 8 8 9 6 7 8 9 9 10 10 10 10 10 11 11 12 13 13 13 12 12 10 8 8 8 8 8 8 8 9 9 9 8 8 7 6 6 7 10 9 10 10 11 11 9 6 6 5 4 4 3
nan 8 10 nan 12 14 16 nan 18 16 17 18 12 9 8 13 13 16 24 26 29 29 26 26 26 24 12 14 15 16 17 nan nan nan nan nan nan nan nan nan nan nan nan nan 6 4 6 9 8 6 7 8 8 9 9 9 10 11 11 12 13 12 12 13 13 11 10 7 8 8 8 8 8 8 7 7 9 10 9 9 9 9 7 8 8 10 10 9 9 8 7 6 5 7 8 6 5
11 10 12 12 nan 12 14 18 20 21 nan nan 12 7 3 8 10 14 22 31 29 28 25 25 26 24 nan 16 nan nan nan nan nan nan nan nan nan nan nan nan nan nan nan nan nan 3 6 8 8 7 8 8 8 9 9 10 10 12 13 12 11 12 11 10 11 10 7 8 9 8 7 8 8 9 9 9 9 10 10 9 10 9 8 9 9 10 11 12 12 9 7 8 7 6 8 8 7
9 8 9 15 15 11 12 19 23 nan nan nan nan nan 7 7 6 9 19 30 31 29 26 27 26 25 nan nan nan nan nan nan nan nan nan nan nan nan nan nan nan nan nan nan nan 3 6 8 7 8 9 8 9 9 11 11 11 11 12 12 12 10 9 10 10 8 7 8 10 9 9 8 8 9 10 10 11 11 11 10 9 10 10 10 10 10 10 11 11 12 10 8 9 7 7 9 9
12 11 13 14 15 nan 15 19 nan nan nan nan nan 13 10 5 7 9 17 29 30 27 28 27 28 26 27 nan nan nan nan nan nan nan nan nan nan nan nan nan nan nan nan nan nan nan 6 7 8 8 8 9 11 12 12 12 11 10 10 11 10 9 8 8 10 8 nan nan nan nan 10 10 10 10 10 11 11 12 12 12 11 11 11 11 11 11 10 10 11 11 10 8 9 10 9 9 10
12 14 15 13 11 13 11 nan 17 nan nan nan 19 nan nan nan 3 2 15 24 27 28 27 27 29 31 30 nan nan nan nan nan nan nan nan nan nan nan nan nan nan nan nan nan nan nan nan 7 8 8 8 10 11 12 12 11 10 nan 8 nan nan nan nan nan nan nan nan nan nan nan 11 12 12 11 11 10 11 12 13 13 14 13 12 12 11 10 10 11 11 11 12 12 9 9 8 7 9
13 nan nan 14 14 18 11 12 15 16 21 nan 19 17 16 11 4 5 19 24 27 30 29 30 30 32 33 32 nan nan nan nan nan nan nan nan nan nan nan nan nan nan nan nan nan nan nan 8 8 8 nan 10 11 12 11 11 9 9 nan nan nan nan nan 11 nan nan nan nan 10 nan 12 12 13 13 13 12 12 13 14 15 15 14 14 13 13 12 11 13 13 12 12 12 12 8 9 7 10
13 16 nan nan nan nan nan 20 17 18 16 21 17 nan nan 12 8 3 16 21 nan 27 32 30 29 31 33 33 33 nan nan nan nan nan nan nan nan nan nan nan nan nan nan nan nan nan nan 7 nan nan nan 9 11 11 11 10 8 8 9 10 8 9 10 9 9 nan nan 5 6 8 14 14 15 15 15 15 16 16 15 15 14 14 13 12 12 12 12 14 15 15 16 15 15 15 11 10 8
nan 11 nan nan nan 16 17 23 21 16 17 21 24 nan nan 13 13 3 12 20 23 29 nan 26 29 33 32 28 26 nan nan nan nan nan nan nan nan nan nan nan nan nan nan nan nan nan nan nan nan nan nan nan 10 11 11 9 10 10 8 9 10 9 12 11 12 13 nan 9 14 14 13 16 17 17 16 17 18 16 15 15 15 14 14 14 13 13 12 10 10 12 14 15 15 16 15 12 10
nan nan 17 14 19 21 24 25 19 nan 20 24 23 nan nan 9 10 6 4 10 15 22 21 23 30 35 31 26 24 24 nan nan nan nan nan nan nan nan nan nan nan nan nan nan nan nan nan nan nan nan nan nan 10 11 11 9 9 8 9 10 10 11 14 14 11 11 nan 14 15 14 15 16 16 17 17 17 18 18 17 17 16 15 14 14 14 13 13 13 13 13 13 15 15 14 15 14 15
nan nan nan 22 24 23 24 25 nan nan 16 12 18 nan nan nan nan nan 4 3 7 13 18 25 30 31 28 26 22 21 nan nan nan nan nan nan nan nan nan nan nan nan nan nan nan nan nan nan nan nan nan 8 10 10 10 10 10 7 8 9 11 12 13 13 10 11 nan 11 13 13 13 15 16 17 17 18 18 18 18 18 17 15 15 15 15 16 16 16 14 13 14 15 15 14 14 15 13
nan nan 18 20 22 22 22 20 17 16 16 15 nan 13 nan nan nan nan 8 3 nan 10 17 25 28 27 25 24 22 20 nan nan nan nan nan nan nan nan nan nan nan nan nan nan nan nan nan nan nan nan nan 7 9 8 9 10 10 9 9 10 12 13 12 11 10 9 10 10 12 13 13 15 16 17 17 16 17 18 18 18 17 16 15 15 15 15 16 17 18 17 15 14 14 14 16 16 15
nan nan 20 16 15 14 16 14 13 13 13 16 20 19 nan nan nan nan 5 nan nan nan 13 24 25 23 22 22 22 21 19 nan nan nan nan nan nan nan nan nan nan nan nan nan nan nan nan nan nan nan nan nan 7 8 9 10 11 10 10 12 14 14 12 13 11 14 nan 11 11 13 16 17 17 16 17 16 17 17 17 17 17 18 17 17 16 16 17 17 17 17 16 15 15 14 14 15 16
nan 16 15 10 10 10 10 9 9 nan nan nan 20 25 nan 9 12 14 9 12 nan nan nan nan 26 26 23 22 21 21 nan nan nan nan nan nan nan nan nan nan nan nan nan nan nan nan nan nan nan nan nan nan 6 8 9 12 12 12 13 14 15 15 15 15 16 16 16 12 12 12 13 16 16 16 16 16 17 18 17 16 16 17 16 16 16 17 18 19 19 18 17 16 16 16 15 15 15
nan nan 10 13 9 9 8 6 7 nan nan nan nan 25 18 nan nan 11 17 16 nan nan 6 11 17 20 21 21 21 21 nan nan nan nan nan nan nan nan nan nan nan nan nan nan nan nan nan nan nan nan nan nan 6 8 10 12 12 13 14 15 17 17 16 17 17 18 17 15 13 12 13 12 12 13 14 15 15 16 16 16 16 15 15 16 18 18 19 19 19 19 18 18 17 18 18 18 18
nan nan nan nan 8 8 nan nan 9 nan nan 9 10 17 9 nan nan 11 20 13 7 5 9 10 11 14 15 18 20 20 nan nan nan nan nan nan nan nan nan nan nan nan nan nan nan nan nan nan nan nan nan nan 6 8 10 11 12 13 15 17 17 17 17 17 17 17 16 15 15 12 9 12 12 12 14 14 15 16 15 16 16 17 18 19 19 20 20 20 20 20 20 20 20 19 20 20 20
nan nan nan nan nan nan nan nan nan nan nan nan nan 13 6 nan nan nan 13 19 13 6 12 15 11 11 12 15 18 20 nan nan nan nan nan nan nan nan nan nan nan nan nan nan nan nan nan nan nan nan nan nan 6 8 10 11 13 13 15 16 18 16 17 17 17 16 16 14 13 14 13 13 14 16 17 18 19 19 17 18 18 19 19 19 20 21 21 21 21 21 21 21 21 21 21 21 22
nan nan nan nan nan nan nan nan nan nan nan nan 9 5 nan nan nan nan nan nan 14 6 10 14 14 16 18 18 19 19 nan nan nan nan nan nan nan nan nan nan nan nan nan nan nan nan nan nan nan nan nan nan 6 8 9 12 13 13 14 16 16 15 16 15 15 14 13 13 13 13 13 12 13 15 18 20 20 21 20 19 18 18 18 19 19 20 20 20 21 21 21 21 21 22 23 23 23
nan nan nan nan nan nan nan nan nan nan nan nan 4 nan 2 nan nan nan nan nan nan 7 5 12 nan nan nan nan 20 17 17 nan nan nan 7 nan nan nan nan nan nan nan nan nan nan nan nan nan nan nan nan nan 8 7 9 12 13 13 13 14 14 13 13 13 13 12 12 11 12 12 13 13 14 16 17 18 19 18 18 17 18 20 20 20 21 21 21 20 20 20 20 20 20 23 24 24 25
nan nan nan nan nan nan nan 10 9 10 nan nan nan nan nan nan nan nan nan nan nan 8 4 nan 15 16 17 19 18 17 16 11 8 7 8 nan nan nan nan nan 6 6 nan nan nan nan nan nan nan nan 6 7 8 8 10 10 11 11 13 13 12 11 12 13 14 14 15 14 13 14 14 16 16 16 17 16 15 14 14 14 16 18 20 20 21 21 21 20 19 20 20 20 20 21 23 23 24
nan nan nan nan 12 11 nan nan nan nan nan nan 12 nan nan nan nan nan nan nan nan nan 6 6 9 10 14 17 17 16 15 12 9 8 8 6 nan 5 6 5 5 5 nan nan nan nan nan nan 4 5 5 7 7 7 8 8 9 11 12 12 12 11 12 13 13 14 14 13 14 15 15 15 18 18 17 15 11 11 12 13 15 16 18 20 21 20 20 20 21 22 22 22 22 22 23 24 26
nan nan nan nan nan 7 nan nan nan nan nan nan nan nan nan nan nan nan nan nan nan nan nan 5 5 5 8 11 12 14 16 14 11 11 10 7 6 4 4 4 5 5 nan nan nan nan nan 2 4 5 6 7 7 5 7 7 8 9 10 11 11 11 11 11 12 13 13 13 15 15 16 16 14 13 13 15 16 18 18 18 18 19 20 21 21 22 22 23 25 25 26 27 29 30 31 31 32
nan nan nan 11 nan nan nan nan nan nan nan nan nan nan nan nan nan nan nan nan nan 6 5 6 5 6 7 8 10 11 13 12 11 11 11 7 5 3 2 4 5 5 5 nan nan nan 3 4 5 5 5 4 3 4 6 7 7 8 9 8 9 9 10 10 12 12 11 13 14 14 11 11 14 14 13 14 16 16 17 19 19 21 22 22 23 23 24 27 30 30 31 32 33 34 35 34 35
nan nan nan nan nan 9 nan nan 6 nan nan nan nan nan nan nan nan nan nan nan nan 5 5 8 8 8 8 9 10 10 11 12 11 11 11 8 5 3 3 4 5 4 4 3 nan nan 4 2 3 4 5 4 4 6 5 6 5 7 7 8 8 8 10 10 10 8 10 12 8 7 9 11 12 12 15 18 19 20 20 20 21 22 24 25 26 27 28 31 34 34 33 33 37 37 37 36 38
nan nan nan nan nan 9 11 8 8 11 nan nan nan nan nan nan nan nan nan nan nan 4 7 10 14 13 11 11 11 10 13 13 11 10 11 9 8 4 3 3 3 3 3 4 3 nan 6 4 3 3 3 3 3 3 3 3 3 5 7 7 7 6 8 6 6 9 9 6 11 12 13 15 16 16 18 21 21 21 22 22 23 25 27 28 29 31 31 32 34 35 34 36 38 39 39 39 39
Wind_Direction
248 193 142 155 170 187 162 nan 139 138 nan nan nan 259 325 326 63 335 111 135 69 148 95 151 103 133 98 110 85 110 121 356 119 327 87 122 331 326 339 332 346 343 345 5 30 27 4 354 347 345 338 338 343 346 354 0 7 15 21 18 6 359 2 3 3 4 3 357 353 348 346 353 355 342 329 318 309 310 318 326 335 352 3 357 10 21 28 33 48 71 104 135 149 164 180 172 170
229 194 182 171 180 164 140 131 161 189 nan nan nan 259 297 311 44 50 59 57 127 82 83 110 97 110 116 74 54 151 173 142 133 180 183 282 306 332 332 340 346 342 349 4 21 32 14 359 346 346 339 341 348 351 356 1 6 14 22 25 17 4 3 13 9 6 3 4 6 13 15 16 17 13 1 354 344 338 337 349 3 20 28 44 58 66 77 91 101 105 110 109 128 136 150 157 167
232 228 186 178 155 151 133 134 nan 128 47 nan nan 343 267 350 75 85 88 84 124 136 101 104 100 97 91 114 147 172 144 200 251 244 251 317 313 6 344 343 345 340 344 8 21 27 25 5 348 345 343 344 349 354 358 1 4 11 17 22 25 18 8 13 19 18 10 6 7 10 19 23 21 21 19 16 18 25 32 37 48 59 65 79 95 97 98 101 103 105 102 106 112 116 120 127 144
223 189 213 157 163 158 172 nan nan nan 50 47 81 336 356 81 89 74 84 118 116 155 153 126 176 140 154 214 149 221 238 207 259 309 301 351 44 339 345 341 341 344 350 9 22 31 26 3 348 346 346 347 352 354 359 1 2 3 9 18 22 24 19 13 13 19 19 14 12 12 15 20 23 22 24 23 26 38 51 57 64 68 76 84 84 90 92 91 92 93 98 99 93 91 87 85 94
220 199 202 191 198 189 198 167 216 330 nan 32 nan 30 68 94 96 87 78 26 93 89 125 137 184 158 143 158 162 167 160 236 262 207 283 251 311 330 339 338 343 349 354 3 18 31 26 354 349 346 347 349 352 356 358 358 358 358 2 8 14 17 18 15 12 11 16 15 15 18 15 16 17 20 23 26 33 39 53 62 69 74 78 81 81 82 85 84 85 85 88 82 78 78 85 90 87
224 225 194 209 212 204 208 nan nan 88 53 313 32 42 70 92 90 86 351 29 97 105 103 140 172 184 179 164 160 208 260 160 261 221 277 306 329 328 329 341 347 352 356 2 22 42 27 354 348 346 349 348 351 357 360 359 357 357 0 4 7 7 8 8 8 13 13 12 13 15 14 15 14 15 19 23 30 40 48 57 62 69 71 73 75 77 79 82 82 83 80 81 79 76 78 84 83
233 218 191 nan 220 225 225 nan nan nan 130 329 27 46 25 130 109 116 231 279 78 99 113 120 219 241 228 167 200 211 168 231 250 292 269 311 317 323 327 341 347 351 354 7 24 40 16 355 351 348 348 349 354 357 2 1 1 1 6 7 6 3 4 6 5 8 13 13 14 18 19 16 15 15 16 21 30 38 46 52 59 66 69 71 75 76 78 81 81 86 86 85 91 92 91 89 88
214 236 201 218 214 231 nan nan nan nan 173 4 324 91 55 109 126 137 343 69 46 73 125 160 217 241 233 192 249 175 204 216 278 286 295 304 311 317 326 336 347 355 2 11 25 41 12 356 352 350 349 352 357 0 3 6 5 9 13 9 6 2 2 6 7 9 10 11 19 25 27 21 18 16 18 24 35 41 49 59 64 67 69 72 74 73 79 81 86 86 90 91 96 97 95 95 95
225 238 217 223 223 232 207 195 192 235 209 166 328 349 72 327 115 130 107 124 176 167 125 124 173 276 216 234 228 210 215 270 287 295 301 304 310 321 330 341 350 355 5 17 22 37 31 2 356 351 352 357 360 3 6 9 12 15 10 6 5 3 3 8 9 10 10 12 17 21 26 24 20 22 25 34 44 51 57 64 68 71 72 77 74 80 82 83 83 84 89 92 94 96 97 92 90
282 245 261 239 236 214 216 185 238 138 32 14 335 341 42 353 15 79 65 21 66 280 133 139 129 258 266 265 248 209 212 273 285 292 301 304 311 320 328 341 351 346 4 23 22 32 44 8 359 355 356 1 4 5 9 14 18 17 10 4 5 5 9 12 12 11 12 14 17 20 23 22 23 30 39 47 55 62 66 67 68 72 76 75 77 79 79 78 79 85 88 92 94 96 95 93 89
297 nan 260 239 231 226 nan 195 249 98 77 308 315 309 257 207 118 19 330 158 179 238 207 81 239 289 274 233 223 205 208 280 286 294 301 302 312 326 324 342 352 348 4 17 17 35 42 23 3 0 2 4 7 8 12 17 19 15 12 11 11 15 19 19 17 16 17 17 18 21 22 25 32 39 48 58 65 66 68 68 69 73 75 73 74 74 73 74 77 82 90 93 96 95 94 92 91
339 339 291 259 245 239 218 202 222 126 137 234 272 263 251 260 149 137 253 296 269 230 270 286 312 281 268 269 261 212 228 272 285 295 300 302 311 326 317 329 343 355 1 16 18 40 42 36 23 11 6 10 10 12 19 22 18 16 17 20 22 24 28 28 26 24 19 17 19 25 28 34 41 46 49 54 61 66 68 73 74 74 73 72 71 70 72 76 80 86 91 95 94 91 88 86 86
327 19 298 286 272 262 221 206 227 165 215 238 244 268 227 141 106 175 260 227 247 288 208 346 296 260 276 291 266 232 264 276 283 299 299 298 307 290 287 327 342 352 9 20 21 37 40 44 34 26 19 11 14 16 21 22 18 19 21 26 30 31 32 33 33 27 21 23 27 33 38 42 45 49 50 52 57 64 67 71 75 72 71 70 69 73 77 85 90 91 92 91 88 86 83 82 81
344 28 333 348 310 284 229 218 220 207 210 214 277 291 305 239 179 193 226 270 286 313 240 317 278 268 258 266 285 281 248 256 301 297 265 260 268 286 302 333 332 356 18 26 28 37 50 50 42 35 26 31 36 24 22 19 21 21 25 30 32 34 35 36 36 34 31 34 39 43 44 46 50 49 49 53 59 62 66 69 72 73 74 72 75 79 85 90 93 93 92 89 86 83 82 83 84
4 13 345 356 9 321 302 237 223 210 211 311 259 275 265 137 207 202 238 243 255 225 231 245 284 290 319 314 16 268 223 190 290 245 244 255 276 285 305 332 335 356 32 40 40 37 53 57 44 43 43 43 40 48 46 30 20 24 29 33 36 37 38 40 40 43 44 45 45 47 47 46 49 48 48 53 61 63 65 67 68 75 78 77 80 83 87 92 93 92 90 88 86 86 87 86 87
11 3 357 1 13 332 348 270 243 234 245 273 255 253 228 94 285 220 178 213 211 221 257 273 283 281 296 313 324 266 208 215 248 244 251 263 273 279 315 335 342 8 49 52 53 56 58 54 51 51 50 46 49 52 49 45 29 25 29 34 37 39 41 42 42 44 44 46 46 46 45 53 51 59 45 59 60 64 68 78 77 78 76 76 81 84 87 88 89 89 87 86 85 85 85 84 84
20 12 358 1 27 335 341 299 290 283 278 247 258 253 291 259 263 195 194 198 228 259 257 278 290 278 307 283 303 238 194 241 256 253 262 262 270 296 360 1 10 32 56 68 72 63 54 51 46 55 49 43 44 49 50 49 42 28 34 34 36 39 42 40 41 40 44 47 48 46 47 62 78 78 72 80 66 90 79 75 79 79 78 78 78 82 84 84 85 84 83 81 81 82 84 85 87
18 16 1 5 9 354 358 331 316 282 263 243 253 276 266 161 229 206 209 194 209 247 263 266 257 267 282 222 236 213 189 253 269 258 245 235 244 302 40 16 18 40 55 72 70 61 51 59 50 42 50 46 46 51 58 56 55 38 55 56 59 54 48 45 51 69 57 82 51 63 78 81 82 82 89 72 92 88 87 75 75 76 77 79 81 82 82 82 82 81 82 80 80 80 81 82 83
10 11 359 11 359 17 341 327 322 301 14 114 244 258 266 242 234 218 221 223 251 271 258 276 271 284 243 204 249 194 203 234 245 224 253 262 260 331 32 42 36 36 51 72 76 47 52 56 55 40 43 45 44 53 56 60 60 59 60 62 66 55 67 64 78 70 82 80 88 85 79 86 88 91 90 84 86 79 85 81 77 76 78 78 80 83 83 84 84 85 88 88 86 83 80 67 65
22 356 7 9 5 7 352 328 338 349 345 35 182 240 271 260 258 226 213 234 242 310 292 263 301 319 311 173 201 188 195 209 204 223 261 289 325 339 21 34 44 41 39 59 63 62 47 50 45 44 37 39 45 59 61 63 63 59 61 63 63 71 79 81 80 80 81 82 86 81 78 80 81 81 75 63 71 82 84 79 78 77 77 77 78 86 88 86 86 89 91 93 93 90 77 63 56
8 359 6 7 355 348 360 343 342 347 344 38 150 233 244 264 243 253 238 254 231 216 230 315 332 342 14 122 155 157 174 177 177 191 305 11 356 15 38 46 48 47 50 61 65 55 38 38 42 44 43 42 45 57 57 60 61 58 62 63 63 65 75 75 75 76 77 74 76 75 72 71 71 69 71 80 80 79 85 93 95 96 99 106 90 101 104 108 117 127 121 113 108 89 71 65 65
350 16 17 12 351 350 340 342 338 328 331 359 82 242 230 238 239 248 236 272 260 258 240 196 293 343 33 100 139 142 152 159 128 101 27 20 10 30 44 51 50 57 58 nan 54 49 37 36 34 39 41 41 49 58 53 58 54 55 57 61 61 68 69 70 70 70 72 71 72 74 77 75 77 75 72 70 78 76 73 82 85 95 99 95 98 100 109 105 102 102 106 99 87 70 58 59 63
16 19 30 28 22 8 331 328 329 325 330 346 2 339 222 226 227 225 210 223 222 229 229 209 239 351 49 141 158 130 138 147 85 72 50 32 28 46 55 46 42 51 nan nan 59 57 36 36 34 31 38 40 49 63 64 65 62 62 58 58 57 66 71 68 67 70 72 71 70 71 73 76 82 86 77 70 74 70 62 65 73 70 77 82 82 82 79 81 101 94 78 78 70 54 54 57 59
14 28 11 22 12 16 355 343 334 333 326 344 344 247 245 200 204 230 208 206 203 214 234 213 213 236 264 125 134 133 139 137 53 82 66 48 35 44 55 42 53 nan nan nan 57 51 44 32 33 29 39 38 53 60 62 66 68 63 61 59 59 63 64 65 65 68 68 70 72 74 72 75 75 78 73 61 56 49 55 55 57 58 65 68 66 66 66 74 94 81 67 56 38 38 54 54 32
20 31 22 20 9 8 356 352 343 339 338 326 317 293 309 42 225 236 219 215 209 183 230 214 218 218 184 157 139 141 137 145 92 nan nan nan 58 51 56 67 nan nan nan nan 57 49 43 38 28 34 38 39 52 56 62 70 68 70 65 67 60 57 61 60 58 64 62 64 67 64 64 60 61 60 53 48 44 49 55 54 39 53 65 69 25 70 73 73 69 58 47 41 21 19 15 29 4
20 31 18 16 12 2 357 352 347 344 328 323 330 332 298 252 217 207 221 225 202 191 233 228 231 260 159 154 136 134 134 nan 123 nan nan nan nan nan nan nan nan nan nan 51 49 56 50 38 29 36 33 45 52 58 73 70 69 69 66 66 60 56 60 56 55 59 63 55 57 56 53 49 53 53 45 37 33 51 44 38 30 33 45 41 0 42 64 30 29 28 39 47 54 27 346 321 323
8 19 21 26 25 10 2 354 348 345 337 341 338 305 253 241 225 197 221 203 202 188 218 218 224 215 169 154 139 128 131 125 121 109 nan nan nan nan nan nan nan nan nan 47 58 57 56 38 39 45 40 48 59 64 75 74 72 74 68 69 61 57 53 48 47 49 58 55 55 55 54 53 56 58 49 35 33 43 44 26 29 31 48 35 351 8 7 12 5 6 14 15 221 226 7 349 334
22 26 32 26 21 18 3 352 353 344 343 337 312 248 232 263 228 204 218 210 193 196 217 227 201 180 182 159 137 141 140 129 141 128 nan nan nan nan nan nan nan nan nan 47 67 61 44 39 40 44 45 47 57 67 78 78 73 75 66 66 61 59 49 49 44 42 53 55 53 54 50 50 51 55 50 40 29 39 42 21 23 16 41 21 347 342 349 356 345 332 266 260 305 337 25 14 338
25 18 33 18 357 358 358 1 356 350 352 335 297 262 232 259 225 227 233 217 199 208 212 207 199 172 185 173 164 142 144 131 nan 137 nan nan nan nan nan nan nan nan nan 42 55 47 36 47 50 49 49 52 58 63 71 74 76 73 61 58 61 56 54 54 52 50 56 54 50 52 48 39 42 44 45 36 31 38 41 17 10 9 6 0 344 348 350 334 309 307 338 326 343 350 11 53 347
16 17 19 26 355 2 9 360 352 352 358 337 266 214 225 228 213 233 215 216 203 220 193 198 179 186 182 170 162 150 137 133 nan nan nan nan nan nan nan nan nan nan nan 80 50 44 63 82 85 76 62 58 57 73 70 72 71 71 63 62 62 60 62 62 62 63 63 57 53 51 46 42 49 56 41 57 60 57 58 34 22 13 6 360 348 343 345 333 338 338 359 329 352 358 19 51 35
24 20 2 14 4 16 15 3 3 3 360 344 249 224 220 220 223 226 211 207 200 216 196 195 172 173 186 186 162 136 123 135 nan nan nan nan nan nan nan nan nan nan nan 75 53 46 59 82 93 92 73 69 63 66 63 65 69 75 72 73 69 66 72 72 71 70 66 60 54 60 57 58 61 70 70 68 76 74 72 62 52 42 32 21 14 14 8 1 353 12 9 13 17 10 12 20 25
23 5 21 19 nan nan 16 8 3 13 10 348 282 nan 207 207 238 212 206 203 186 205 205 200 164 162 188 180 136 125 130 nan nan nan nan nan nan nan nan nan nan nan nan 61 70 53 64 74 79 81 71 69 73 67 73 70 71 77 82 79 80 75 78 76 73 73 71 67 68 70 64 63 65 67 68 66 75 71 70 68 59 56 35 20 31 17 1 11 11 18 18 10 16 19 6 7 359
14 3 24 23 nan 24 13 13 17 6 356 346 325 249 nan nan 231 214 206 193 183 193 197 178 175 149 192 165 136 130 134 nan nan nan nan nan nan nan nan nan nan nan nan 55 73 69 72 71 70 64 56 67 76 72 74 77 76 77 80 82 79 82 81 79 78 79 83 80 76 74 66 55 56 51 49 46 52 60 60 63 62 50 28 13 24 6 359 4 3 13 20 8 359 353 346 337 341
30 6 8 15 24 16 14 16 11 13 7 357 343 284 194 209 232 215 218 195 199 199 194 187 177 170 198 162 142 138 137 nan nan nan nan nan nan nan nan nan nan nan nan nan 56 71 72 79 82 71 67 72 83 81 77 79 80 80 88 84 83 77 76 80 81 80 83 83 71 62 63 58 56 54 42 31 33 39 36 34 37 32 8 14 32 18 7 8 7 9 10 357 345 338 353 343 341
nan 9 9 nan 13 3 12 nan 5 357 7 348 341 296 221 207 206 224 212 196 199 193 189 182 178 170 179 148 140 140 142 nan nan nan nan nan nan nan nan nan nan nan nan nan 59 100 91 89 97 83 78 77 86 83 86 89 86 89 88 82 77 75 78 78 80 84 84 91 80 55 41 39 36 43 47 40 31 37 34 21 19 33 20 22 37 30 18 11 14 3 358 20 18 7 5 4 357
19 17 9 359 nan 9 8 0 352 349 nan nan 2 339 253 197 218 234 202 189 195 186 183 177 170 165 nan 157 nan nan nan nan nan nan nan nan nan nan nan nan nan nan nan nan nan 97 87 87 102 91 87 90 97 99 98 101 94 86 82 92 91 81 77 75 78 78 71 66 67 52 32 25 19 24 29 28 31 39 43 36 29 33 27 34 32 26 17 17 21 25 31 19 25 15 1 0 355
13 352 355 2 356 9 359 342 357 nan nan nan nan nan 344 284 222 234 197 187 182 180 177 172 167 167 nan nan nan nan nan nan nan nan nan nan nan nan nan nan nan nan nan nan nan 88 80 90 97 79 95 91 97 99 96 88 88 86 92 78 76 76 66 63 62 68 64 49 48 35 15 16 15 19 20 17 27 37 43 45 34 40 25 30 33 31 29 24 16 10 9 2 9 9 359 356 352
7 5 5 2 349 nan 4 347 nan nan nan nan nan 346 343 328 267 196 190 183 176 173 171 166 158 160 166 nan nan nan nan nan nan nan nan nan nan nan nan nan nan nan nan nan nan nan 86 83 82 82 110 93 85 87 86 83 90 85 78 73 73 68 60 52 53 51 nan nan nan nan 11 11 9 14 21 19 27 29 38 43 43 43 39 33 29 28 20 19 14 3 355 1 354 3 9 0 347
13 4 3 355 354 332 331 nan 344 nan nan nan 355 nan nan nan 313 240 191 174 175 168 165 161 158 161 167 nan nan nan nan nan nan nan nan nan nan nan nan nan nan nan nan nan nan nan nan 91 92 95 107 99 91 90 93 89 96 nan 78 nan nan nan nan nan nan nan nan nan nan nan 13 13 10 17 26 26 30 35 36 36 40 41 39 34 33 38 26 19 8 4 358 358 9 348 359 2 355
5 nan nan 2 349 338 1 9 4 11 6 nan 7 344 358 359 25 199 190 181 172 163 163 159 162 162 163 164 nan nan nan nan nan nan nan nan nan nan nan nan nan nan nan nan nan nan nan 106 104 98 nan 101 95 92 89 87 82 81 nan nan nan nan nan 57 nan nan nan nan 39 nan 25 20 16 21 27 30 36 40 38 36 36 33 36 28 25 27 24 19 5 4 1 1 350 350 337 349 348
21 1 nan nan nan nan nan 8 4 1 357 354 351 nan nan 7 5 174 189 183 nan 171 174 165 160 156 154 156 156 nan nan nan nan nan nan nan nan nan nan nan nan nan nan nan nan nan nan 91 nan nan nan 94 90 86 75 78 79 73 75 77 73 69 80 84 68 nan nan 45 41 37 33 29 28 30 32 35 37 39 37 34 31 29 25 24 15 18 16 11 4 3 0 355 348 348 358 348 335
nan 357 nan nan nan 316 331 341 346 359 3 7 359 nan nan 20 16 29 195 189 177 181 nan 153 149 149 152 154 152 nan nan nan nan nan nan nan nan nan nan nan nan nan nan nan nan nan nan nan nan nan nan nan 80 72 65 63 59 51 49 51 59 61 63 72 65 58 nan 38 42 47 40 34 33 35 35 36 35 32 29 28 24 21 18 17 11 11 11 4 3 0 357 352 356 355 354 358 354
nan nan 346 342 313 327 338 345 339 nan 356 5 12 nan nan 13 35 32 219 202 190 168 152 138 143 145 150 150 153 151 nan nan nan nan nan nan nan nan nan nan nan nan nan nan nan nan nan nan nan nan nan nan 72 69 65 62 63 57 43 39 38 38 45 59 60 61 nan 43 45 43 42 39 39 35 36 32 31 28 25 26 26 24 21 15 10 5 5 3 2 0 353 347 355 354 346 357 6
nan nan nan 313 324 334 346 345 nan nan 341 340 1 nan nan nan nan nan 322 245 184 160 137 135 141 142 146 147 147 150 nan nan nan nan nan nan nan nan nan nan nan nan nan nan nan nan nan nan nan nan nan 69 71 67 66 62 60 59 48 44 36 40 39 50 53 55 nan 51 48 48 43 44 38 37 34 31 30 29 26 27 27 27 25 22 12 10 9 5 4 2 353 348 345 344 345 351 1
nan nan 303 326 332 343 340 341 348 346 332 359 nan 14 nan nan nan nan 319 318 nan 135 134 131 137 137 143 144 144 145 nan nan nan nan nan nan nan nan nan nan nan nan nan nan nan nan nan nan nan nan nan 68 71 59 55 63 59 45 40 39 41 47 47 53 61 65 56 58 43 45 44 45 40 38 37 34 33 31 27 25 23 24 23 21 11 10 7 2 1 1 358 353 347 344 337 341 335
nan nan 308 327 334 317 320 327 334 353 349 6 6 2 nan nan nan nan 22 nan nan nan 121 126 134 139 144 144 144 143 154 nan nan nan nan nan nan nan nan nan nan nan nan nan nan nan nan nan nan nan nan nan 67 56 49 53 54 43 37 41 41 52 62 75 81 81 nan 59 47 42 42 37 39 37 38 36 35 33 29 23 20 19 18 15 6 5 1 356 353 351 351 345 337 335 329 324 325
nan 266 266 253 256 277 294 313 336 nan nan nan 357 357 nan 30 31 17 10 53 nan nan nan nan 144 149 150 147 145 147 nan nan nan nan nan nan nan nan nan nan nan nan nan nan nan nan nan nan nan nan nan nan 54 46 45 47 51 46 40 42 49 57 69 76 84 87 86 73 60 56 45 44 35 35 34 34 30 29 29 23 20 16 9 4 1 357 355 355 353 349 345 336 329 329 326 322 321
nan nan 270 263 248 255 278 317 321 nan nan nan nan 353 354 nan nan 32 39 46 nan nan 134 139 137 139 145 147 145 144 nan nan nan nan nan nan nan nan nan nan nan nan nan nan nan nan nan nan nan nan nan nan 53 47 44 48 50 50 49 50 58 66 68 74 74 77 78 78 72 54 50 41 49 41 37 35 32 27 22 21 17 8 1 357 357 354 353 350 347 341 337 331 330 329 328 325 321
nan nan nan nan 284 280 nan nan 346 nan nan 7 335 333 339 nan nan 29 33 41 13 61 141 136 125 129 142 147 142 148 nan nan nan nan nan nan nan nan nan nan nan nan nan nan nan nan nan nan nan nan nan nan 64 53 47 52 56 53 55 59 68 68 65 66 69 71 72 71 71 67 42 41 39 43 41 34 35 29 18 16 10 3 358 354 353 348 349 347 342 337 335 332 329 328 329 328 322
nan nan nan nan nan nan nan nan nan nan nan nan nan 340 20 nan nan nan 29 35 25 46 132 145 138 132 139 152 154 153 nan nan nan nan nan nan nan nan nan nan nan nan nan nan nan nan nan nan nan nan nan nan 83 64 52 55 58 59 61 64 68 67 65 63 64 63 66 60 56 57 48 34 29 31 31 28 29 26 16 12 4 359 354 351 347 346 347 343 338 337 333 330 329 326 324 325 324
nan nan nan nan nan nan nan nan nan nan nan nan 291 289 nan nan nan nan nan nan 28 60 138 161 165 154 157 169 171 158 nan nan nan nan nan nan nan nan nan nan nan nan nan nan nan nan nan nan nan nan nan nan 73 59 59 51 56 61 66 68 67 68 67 68 68 65 66 64 61 55 55 46 29 29 26 26 22 18 12 4 358 352 350 349 343 341 343 340 336 333 328 328 323 321 323 325 322
nan nan nan nan nan nan nan nan nan nan nan nan 168 nan 183 nan nan nan nan nan nan 56 132 184 nan nan nan nan 166 155 156 nan nan nan 169 nan nan nan nan nan nan nan nan nan nan nan nan nan nan nan nan nan 59 59 57 48 54 60 68 68 67 67 71 72 78 77 74 69 67 56 57 49 43 39 36 27 25 14 9 358 347 348 349 345 340 338 338 335 332 328 324 321 324 317 320 321 319
nan nan nan nan nan nan nan 282 304 288 nan nan nan nan nan nan nan nan nan nan nan 42 100 nan 186 177 167 161 157 153 154 164 164 154 165 nan nan nan nan nan 138 148 nan nan nan nan nan nan nan nan 66 66 56 57 50 50 55 65 69 69 70 72 67 67 68 70 70 68 63 58 53 49 44 38 38 31 29 20 10 359 350 348 345 338 332 332 332 330 325 321 321 320 322 316 309 309 306
nan nan nan nan 251 272 nan nan nan nan nan nan 221 nan nan nan nan nan nan nan nan nan 76 139 181 176 160 159 156 154 154 163 168 162 167 169 nan 147 151 141 123 120 nan nan nan nan nan nan 38 49 58 57 65 60 59 56 58 65 69 68 70 66 64 65 67 67 66 63 60 56 51 50 45 39 32 32 17 11 0 356 350 344 334 327 325 321 320 323 321 322 318 316 312 303 302 301 297
nan nan nan nan nan 249 nan nan nan nan nan nan nan nan nan nan nan nan nan nan nan nan nan 127 145 142 145 158 157 160 166 171 170 170 176 174 159 151 142 114 100 99 nan nan nan nan nan 337 17 38 39 45 41 45 53 61 62 71 68 64 63 64 64 64 64 60 53 48 49 46 42 41 42 32 22 17 12 6 360 353 345 335 324 319 313 311 313 313 311 309 307 306 295 294 295 294 292
nan nan nan 231 nan nan nan nan nan nan nan nan nan nan nan nan nan nan nan nan nan 94 80 93 117 129 153 167 172 178 175 174 171 170 173 169 156 137 101 80 76 75 80 nan nan nan 322 339 355 30 43 46 48 36 38 50 60 66 68 73 71 65 62 56 52 45 35 35 38 37 32 28 27 21 10 358 348 342 333 326 321 316 310 305 301 300 300 299 300 299 299 300 298 297 296 297 298
nan nan nan nan nan 263 nan nan 288 nan nan nan nan nan nan nan nan nan nan nan nan 131 125 144 135 138 152 168 176 186 186 181 177 174 174 163 162 154 103 79 83 81 78 102 nan nan 292 277 339 5 17 24 28 33 27 46 56 61 69 68 64 59 59 51 44 29 25 29 22 349 344 344 334 331 335 331 333 330 325 319 312 307 303 302 301 301 303 305 304 304 303 303 304 302 301 301 302
nan nan nan nan nan 275 269 268 270 282 nan nan nan nan nan nan nan nan nan nan nan 204 220 185 156 144 151 165 171 182 188 188 186 178 178 169 167 161 121 90 96 87 69 81 207 nan 275 297 332 353 2 349 10 26 32 39 57 60 61 68 63 53 51 46 30 29 25 334 310 317 321 321 321 330 331 329 327 326 321 314 310 305 300 299 298 298 298 302 304 306 305 304 302 303 302 303 305